This demonstration page uses our WeatherBlox Daily Observations layout. Learn more.

Left ArrowRight Arrow

39.51506, -84.39828

Hourly Observations for May 30, 2015

Temp ( °F °C ) Dew Point ( °F °C ) Humidity (%) Winds ( mph kmh ) Pressure ( in mb ) Visibility ( mi km ) Precip ( " mm )
12:15 am 00:15 Clear with Mist and Fog 69 20.8 66 19 90 90 Calm 30.06 1018 4 6 0.00 0.00
12:35 am 00:35 Clear 69 20.8 66 19 90 90 Calm 30.06 1018 10 16 0.00 0.00
12:55 am 00:55 Clear 69 20.8 66 19 90 90 Calm 30.03 1017 10 16 0.00 0.00
1:15 am 01:15 Clear 69 20.8 66 19 90 90 Calm 30.03 1017 10 16 0.00 0.00
1:35 am 01:35 Clear with Mist and Fog 69 20.8 66 19 90 90 Calm 30.03 1017 5 8 0.00 0.00
1:55 am 01:55 Clear with Mist and Fog 69 20.8 66 19 90 90 Calm 30.03 1017 4 6 0.00 0.00
2:15 am 02:15 Partly Cloudy 69 20.8 66 19 90 90 Calm 30.03 1017 10 16 0.00 0.00
2:35 am 02:35 Partly Cloudy 69 20.8 66 19 90 90 S 3 6 30.03 1017 10 16 0.00 0.00
2:55 am 02:55 Clear 72 22 67 19.2 84 84 SSW 6 9 30.03 1017 10 16 0.00 0.00
3:15 am 03:15 Clear 71 21.8 66 18.9 84 84 SSW 5 7 30.03 1017 10 16 0.00 0.00
3:35 am 03:35 Partly Cloudy 69 20.8 65 18.1 85 85 SSW 7 11 30.03 1017 10 16 0.00 0.00
3:55 am 03:55 Partly Cloudy 71 21.4 65 18.5 84 84 SW 6 9 30.03 1017 10 16 0.00 0.00
4:15 am 04:15 Mostly Cloudy 69 20.8 65 18.3 86 86 Calm 30.03 1017 10 16 0.00 0.00
4:35 am 04:35 Partly Cloudy 69 20.8 64 18 84 84 Calm 30.03 1017 10 16 0.00 0.00
4:55 am 04:55 Clear 69 20.8 64 18 84 84 SSW 6 9 30.03 1017 10 16 0.00 0.00
5:15 am 05:15 Partly Cloudy 69 20.8 65 18.1 85 85 S 5 7 30.03 1017 10 16 0.00 0.00
5:35 am 05:35 Mostly Cloudy 69 20.8 65 18.5 87 87 Calm 30.03 1017 10 16 0.00 0.00
5:55 am 05:55 Mostly Cloudy 69 20.8 66 18.7 88 88 Calm 30.03 1017 10 16 0.00 0.00
6:15 am 06:15 Sunny 69 20.8 66 18.7 88 88 Calm 30.03 1017 10 16 0.00 0.00
6:35 am 06:35 Sunny 69 20.8 65 18.6 87 87 SSW 6 9 30.06 1018 10 16 0.00 0.00
6:55 am 06:55 Sunny 69 20.8 65 18.5 87 87 Calm 30.06 1018 10 16 0.00 0.00
7:15 am 07:15 Sunny 70 21.1 66 18.8 87 87 Calm 30.06 1018 10 16 0.00 0.00
7:35 am 07:35 Sunny 74 23.6 69 20.6 83 83 Calm 30.06 1018 10 16 0.00 0.00
7:55 am 07:55 Sunny 74 23.6 69 20.4 82 82 SW 5 7 30.06 1018 10 16 0.00 0.00
8:15 am 08:15 Sunny 74 23.6 68 19.8 79 79 SSW 6 9 30.06 1018 10 16 0.00 0.00
8:35 am 08:35 Sunny 74 23.6 67 19.5 78 78 SSW 7 11 30.06 1018 10 16 0.00 0.00
8:55 am 08:55 Sunny 75 23.9 67 19.3 76 76 SW 9 15 30.06 1018 10 16 0.00 0.00
9:15 am 09:15 Sunny 77 25.1 68 20.1 74 74 SW 12 19 30.06 1018 10 16 0.00 0.00
9:35 am 09:35 Sunny 77 25.1 67 19.7 72 72 SSW 9 15 30.06 1018 10 16 0.00 0.00
9:55 am 09:55 Partly Cloudy 77 25.1 67 19.5 71 71 SW 9 15 30.06 1018 10 16 0.00 0.00
10:15 am 10:15 Mostly Cloudy 77 25.1 67 19.7 72 72 SW 7 11 30.06 1018 10 16 0.00 0.00
10:35 am 10:35 Cloudy 77 25.1 67 19.3 70 70 SSW 6 9 30.06 1018 10 16 0.00 0.00
10:55 am 10:55 Cloudy 77 25.2 67 19.2 69 69 S 6 9 30.06 1018 10 16 0.00 0.00
11:15 am 11:15 Partly Cloudy 80 26.5 68 19.8 67 67 SSW 9 15 30.06 1018 10 16 0.00 0.00
11:35 am 11:35 Partly Cloudy 81 27 68 19.8 65 65 SW 9 15 30.06 1018 10 16 0.00 0.00
11:55 am 11:55 Partly Cloudy 80 26.8 67 19.6 65 65 SW 9 15 30.03 1017 10 16 0.00 0.00
12:15 pm 12:15 Sunny 82 27.7 67 19.5 61 61 SW 12 19 30.03 1017 10 16 0.00 0.00
12:35 pm 12:35 Sunny 82 28 66 19 58 58 SSW 12 19 30.03 1017 10 16 0.00 0.00
12:55 pm 12:55 Sunny 83 28.2 66 18.8 57 57 SSW 10 17 30.03 1017 10 16 0.00 0.00
1:15 pm 13:15 Partly Cloudy 81 27.4 64 17.9 56 56 SW 12 19 30.00 1016 10 16 0.00 0.00
1:35 pm 13:35 Partly Cloudy 83 28.6 66 19 56 56 SW 9 15 29.97 1015 10 16 0.00 0.00
1:55 pm 13:55 Partly Cloudy 83 28.1 66 18.7 57 57 SW 15 24 30.00 1016 10 16 0.00 0.00
2:15 pm 14:15 Partly Cloudy 83 28.1 66 18.9 57 57 SW 12 19 30.00 1016 10 16 0.00 0.00
2:35 pm 14:35 Partly Cloudy 84 29.1 65 18.4 52 52 WSW 12 19 29.94 1014 10 16 0.00 0.00
2:55 pm 14:55 Sunny 87 30.4 66 19.1 51 51 SW 16 26 29.94 1014 10 16 0.00 0.00
3:15 pm 15:15 Sunny 87 30.7 66 19.1 50 50 S 18 30 29.94 1014 10 16 0.00 0.00
3:35 pm 15:35 Sunny 87 30.7 65 18.4 48 48 SSW 20 31 29.94 1014 10 16 0.00 0.00
3:55 pm 15:55 Sunny 87 30.7 64 17.9 46 46 SSW 21 33 29.91 1013 10 16 0.00 0.00
4:15 pm 16:15 Partly Cloudy 87 30.7 65 18.6 48 48 S 12 19 29.91 1013 10 16 0.00 0.00
4:35 pm 16:35 Partly Cloudy 87 30.7 65 18.2 47 47 SSW 17 28 29.91 1013 10 16 0.00 0.00
4:55 pm 16:55 Partly Cloudy 84 28.9 62 16.7 48 48 SSW 15 24 29.91 1013 10 16 0.00 0.00
5:15 pm 17:15 Cloudy with Light Rain 81 27 62 16.7 53 53 SW 26 43 29.97 1015 10 16 0.00 0.00
5:35 pm 17:35 Cloudy with Light Rain 74 23.6 69 20.4 82 82 SW 7 11 29.94 1014 10 16 0.00 0.00
5:55 pm 17:55 Partly Cloudy 74 23.6 67 19.7 79 79 W 3 6 29.94 1014 10 16 0.00 0.00
6:15 pm 18:15 Sunny 74 23.6 66 19 75 75 Calm 29.94 1014 10 16 0.00 0.00
6:35 pm 18:35 Sunny 77 25.1 66 19 69 69 Calm 29.94 1014 10 16 0.00 0.00
6:55 pm 18:55 Sunny 77 25.1 66 18.8 68 68 Calm 29.94 1014 10 16 0.00 0.00
7:15 pm 19:15 Mostly Cloudy 77 25.1 66 18.9 69 69 Calm 29.94 1014 10 16 0.00 0.00
7:35 pm 19:35 Mostly Cloudy 77 25.1 67 19.4 71 71 SSE 5 7 29.94 1014 10 16 0.00 0.00
7:55 pm 19:55 Partly Cloudy 77 25.1 70 20.9 78 78 SE 3 6 29.94 1014 10 16 0.00 0.00
8:15 pm 20:15 Mostly Cloudy 75 23.8 68 20.2 80 80 Calm 29.94 1014 10 16 0.00 0.00
8:35 pm 20:35 Mostly Cloudy 74 23.6 69 20.7 84 84 Calm 29.94 1014 10 16 0.00 0.00
8:55 pm 20:55 Partly Cloudy 74 23.6 70 21 85 85 Calm 29.94 1014 10 16 0.00 0.00
9:15 pm 21:15 Partly Cloudy 74 23.6 70 21 85 85 ENE 3 6 29.94 1014 10 16 0.00 0.00
9:35 pm 21:35 Partly Cloudy 74 23.6 70 21.2 86 86 NE 3 6 29.94 1014 10 16 0.00 0.00
9:55 pm 21:55 Partly Cloudy 74 23.6 70 21.3 87 87 Calm 29.94 1014 10 16 0.00 0.00
10:15 pm 22:15 Partly Cloudy 72 22.3 68 20 87 87 Calm 29.94 1014 10 16 0.00 0.00
10:35 pm 22:35 Clear 70 21.2 66 19.1 88 88 Calm 29.97 1015 7 11 0.00 0.00
10:55 pm 22:55 Partly Cloudy 69 20.8 66 18.8 88 88 Calm 29.97 1015 7 11 0.00 0.00
11:15 pm 23:15 Mostly Cloudy 71 21.5 67 19.6 89 89 Calm 29.97 1015 7 11 0.00 0.00
11:35 pm 23:35 Mostly Cloudy 71 21.6 67 19.7 89 89 Calm 29.94 1014 7 11 0.00 0.00
11:55 pm 23:55 Mostly Cloudy 70 21 66 19.1 89 89 Calm 29.94 1014 7 11 0.00 0.00

Powered by AerisWeather